Location: Arbon
(43.0005°N, 0.7472°E)
Time: 10:23:37
(UTC+00:00)

Vanguard 2 Rocket - Pass Details

Date: 02 December 2020
Orbit: 554 x 3325 km, 32.9° (Epoch: 21 January)

Event Time Altitude Azimuth Distance (km) Brightness Sun altitude
Rises 07:40:09 0° 244° (WSW) 6,886 11.1 3.8°
Reaches altitude 10° 07:44:34 10° 241° (WSW) 6,063 10.9 4.5°
Maximum altitude 08:03:58 58° 169° (S) 3,600 10.4 7.3°
Drops below altitude 10° 08:20:35 10° 97° (E) 5,298 11.8 9.6°
Sets 08:24:08 0° 93° (E) 6,010 11.9 10.0°
